Hourly Data Report for October 05, 2017

All times are specified in Local Standard Time (LST). Add 1 hour to adjust for Daylight Saving Time where and when it is observed.

KENORA A
ONTARIO

49°47'18.000" N
94°21'47.000" W
409.70 m
6034076
71850
YQK

Download Data

Hourly Data (October 2017)
Hourly Data Report for October 5, 2017
Temp Definition
°C
Dew Point Temp Definition
°C
Rel Hum Definition
%
Wind Dir Definition
10's deg

Wind Spd Definition
km/h
Visibility Definition
km
Stn Press Definition
kPa
Hmdx Definition


Wind Chill Definition


Weather Definition


TIME
00:00 Legend Double Dagger 6.2 3.4 82 28 11 24.1 96.93     Mainly Clear
01:00 Legend Double Dagger 5.5 3.2 85 28 11 24.1 96.94     LegendNANA
02:00 Legend Double Dagger 5.1 2.9 86 28 12 24.1 96.95     LegendNANA
03:00 Legend Double Dagger 4.5 2.9 90 27 12 24.1 96.94     Mainly Clear
04:00 Legend Double Dagger 4.5 2.9 89 28 11 24.1 96.95     LegendNANA
05:00 Legend Double Dagger 4.5 2.8 89 30 10 24.1 96.96     LegendNANA
06:00 Legend Double Dagger 3.7 2.9 94 27 9 24.1 96.98     Mainly Clear
07:00 Legend Double Dagger 4.2 2.9 91 28 9 24.1 97.00     LegendNANA
08:00 Legend Double Dagger 5.6 3.9 89 32 10 24.1 97.05     LegendNANA
09:00 Legend Double Dagger 6.9 4.3 84 32 12 24.1 97.08     Mostly Cloudy
10:00 Legend Double Dagger 8.5 3.6 71 33 17 24.1 97.06     LegendNANA
11:00 Legend Double Dagger 8.7 2.2 64 33 17 24.1 97.06     LegendNANA
12:00 Legend Double Dagger 9.3 1.4 57 35 10 24.1 97.02     Mostly Cloudy
13:00 Legend Double Dagger 9.0 1.7 60 34 15 24.1 97.01     LegendNANA
14:00 Legend Double Dagger 9.2 1.6 59 34 11 24.1 97.00     LegendNANA
15:00 Legend Double Dagger 10.4 1.1 53 33 16 24.1 96.97     Mostly Cloudy
16:00 Legend Double Dagger 9.5 1.6 58 33 13 24.1 96.93     LegendNANA
17:00 Legend Double Dagger 9.5 1.0 55 31 9 24.1 96.93     LegendNANA
18:00 Legend Double Dagger 8.2 1.2 61 31 8 24.1 96.92     Mainly Clear
19:00 Legend Double Dagger 7.2 0.9 64 31 11 24.1 96.94     LegendNANA
20:00 Legend Double Dagger 6.2 0.6 67 31 13 24.1 96.96     LegendNANA
21:00 Legend Double Dagger 6.0 0.1 66 30 8 24.1 96.94     Clear
22:00 Legend Double Dagger 5.7 -0.2 66 29 6 24.1 96.92     LegendNANA
23:00 Legend Double Dagger 4.7 -0.6 69 23 5 24.1 96.91     LegendNANA

Notes on Data Quality.

Legend

  • E = Estimated
  • M = Missing
  • NA = Not Available
  • ‡ = Partner data that is not subject to review by the National Climate Archives
Date modified: